Location: Chippewa Lake
(41.0698°N, 81.9010°W)
Time: 03:44:46
(UTC+00:00)

SL-8 Rocket - Pass Details

Date: 04 October 2021
Orbit: 958 x 990 km, 82.9° (Epoch: 17 October)

Event Time Altitude Azimuth Distance (km) Brightness Sun altitude
Rises 00:12:46 0° 179° (S) 3,675 7.0 -13.5°
Reaches altitude 10° 00:15:16 10° 178° (S) 2,734 6.3 -13.9°
Maximum altitude 00:21:31 74° 94° (E) 1,028 3.9 -15.1°
Drops below altitude 10° 00:27:50 10° 11° (N) 2,760 6.3 -16.3°
Sets 00:30:22 0° 10° (N) 3,712 7.0 -16.8°
